Simultaneous Nadir Overpasses (SNOs) Predictions

Prediction of SNOs between AQUA and METOP-A Satellite Orbit:

Table of predicted SNOs for the next 14.0 days since TLE Epoch: 8/30/2014
Index Date (AQUA) Time (AQUA) Lat,Lon (AQUA) SZA (AQUA ) Date (METOP-A) Time (METOP-A) Lat,Lon (METOP-A) SZA (METOP-A ) Distance(km) Time Diff (sec)
1 08/31/2014 16:08:08 73.77, -67.64 65.26 08/31/2014 16:07:02 73.74, -67.67 65.25 2.81 66
2 08/31/2014 16:57:35 -73.85, 99.82 114.65 08/31/2014 16:57:42 -73.83, 99.87 114.66 2.39 7
3 08/31/2014 17:47:06 74.02, -92.93 65.56 08/31/2014 17:48:18 74.02, -92.33 65.53 18.13 72
4 09/03/2014 11:42:24 73.74, -1.15 66.25 09/03/2014 11:41:25 73.76, -1.21 66.28 3.04 59
5 09/03/2014 12:31:51 -73.82, 166.32 113.66 09/03/2014 12:32:05 -73.85, 166.33 113.63 3.72 14
6 09/03/2014 13:21:28 74.31, -27.15 66.88 09/03/2014 13:22:36 74.29, -25.26 66.80 57.20 68
7 09/06/2014 07:16:40 73.79, 65.17 67.34 09/06/2014 07:15:47 73.78, 65.24 67.33 2.71 53
8 09/06/2014 08:06:06 -73.82,-127.24 112.63 09/06/2014 08:06:28 -73.82,-127.34 112.62 3.10 22
9 09/06/2014 08:55:48 74.56, 38.66 68.19 09/06/2014 08:56:53 74.55, 41.83 68.09 94.00 65
10 09/09/2014 02:50:55 73.77, 131.66 68.36 09/09/2014 02:50:10 73.79, 131.68 68.39 3.13 45
11 09/09/2014 03:40:22 -73.84, -60.85 111.56 09/09/2014 03:40:51 -73.83, -60.90 111.56 1.50 29
12 09/11/2014 22:25:10 73.76,-161.90 69.42 09/11/2014 22:24:34 73.75,-162.01 69.42 3.59 36
13 09/11/2014 23:14:37 -73.83, 5.60 110.50 09/11/2014 23:15:14 -73.84, 5.53 110.49 2.26 37




NCC Satellite Simultaneous Nadir Overpasses (SNOs) Prediction Service
